Orbital Elements
Epoch 2019 Mar. 18.0 TT = JDT 2458560.5
T 2019 Mar. 19.92699 TT MPCW
q 1.5972631 (2000.0) P Q
z +0.0065151 Peri. 174.88588 -0.39366070 +0.48215838
+/-0.0000712 Node 290.43314 +0.81101543 +0.58298818
e 0.9895937 Incl. 123.36230 +0.43276463 -0.65394808
From 154 observations 2019 Jan. 19-Apr. 3, mean residual 0".7.
|